Location: Bear Valley
(38.4650°N, 120.0390°W)
Time: 17:00:25
(UTC-07:00)

Envisat - Visible Passes

Search period start: 16 October 2019 00:00
Search period end: 26 October 2019 00:00
Orbit: 764 x 766 km, 98.1° (Epoch: 16 October)

Date Brightness Start Highest point End Pass type
(mag) Time Alt. Az. Time Alt. Az. Time Alt. Az.
16 Oct 4.2 19:38:46 10° S 19:43:35 44° W 19:48:26 10° NNW visible
17 Oct 2.9 19:01:44 10° SSE 19:06:47 80° ENE 19:11:53 10° N visible
17 Oct 6.3 20:45:43 10° W 20:46:22 10° W 20:47:00 10° W visible
18 Oct 5.3 20:05:07 10° SSW 20:09:13 25° W 20:13:22 10° NW visible
19 Oct 6.4 06:37:35 10° ENE 06:39:57 13° E 06:42:18 10° ESE visible
19 Oct 3.7 19:27:20 10° S 19:32:18 57° W 19:37:18 10° NNW visible
20 Oct 3.0 18:50:34 10° SSE 18:55:33 62° ENE 19:00:34 10° N visible
20 Oct 6.1 20:32:28 10° WSW 20:34:58 14° W 20:37:29 10° WNW visible
21 Oct 4.8 19:53:25 10° SSW 19:57:54 31° W 20:02:24 10° NNW visible
22 Oct 3.2 19:15:58 10° S 19:21:01 74° WSW 19:26:06 10° NNW visible
23 Oct 3.2 18:39:29 10° SE 18:44:20 49° ENE 18:49:13 10° N visible
23 Oct 5.8 20:20:14 10° SW 20:23:35 18° W 20:26:59 10° NW visible
24 Oct 6.1 06:50:47 10° NE 06:54:20 19° E 06:57:52 10° SE visible
24 Oct 4.4 19:41:50 10° SSW 19:46:35 40° W 19:51:21 10° NNW visible
25 Oct 3.0 19:04:41 10° SSE 19:09:45 87° ENE 19:14:51 10° NNW visible
